COSMOS 2397

导读

COSMOS 2397是由独立国家联合体(CIS)于2003年4月24日发射的军用卫星,隶属于苏联/俄罗斯“宇宙”(COSMOS)卫星系列。该系列卫星多承担空间军事侦察、技术试验等任务,具体任务细节因保密性未公开。作为CIS航天领域延续发展的产物,它承载着战略空间监测任务,体现了后苏联时代航天技术在军事侦察领域的延续应用。

Basic Information
目录编号:
27775
目录名称:
COSMOS 2397
国际标识:
2003-015A
轨道中心:
EARTH
卫星名称:
COSMOS 2397
卫星全名:
--
卫星状态:
在轨 (已飞行8482 天)
发射日期:
2003-04-24 UTC
国别 :
俄罗斯(独联体) (CIS)
星等 :
--
Orbit Information
数据来源 国际轨道数据
星历时间: 2026-07-14T04:11:23+0800
9小时前
查看轨道信息
半长轴: 42112.554km
偏心率: 0.0042841
轨道倾角: 12.729°
近地点辐角 11.866°
升交点赤经 19.861°
平近点角 178.456°
近地点: 35554.002km
远地点: 35914.832km
周期: 1433.432分钟
每日圈数: 1.004582
Detailed Information
使用方式:
暂无
2D Orbit Map
3D Orbit Map
Orbit Altitude Analysis Chart
Orbit Inclination Analysis Chart
Orbit Comprehensive Analysis Chart
View Comprehensive Chart